This demonstration page uses our WeatherBlox Daily Observations layout. Learn more.

Left ArrowRight Arrow

Hourly Observations for August 1, 2018

Temp ( °F °C ) Dew Point ( °F °C ) Humidity (%) Winds ( mph kmh ) Pressure ( in mb ) Visibility ( mi km ) Precip ( " mm )
12:53 am 00:53 Clear 65 18.3 59 15 81 81 S 7 11 30.05 1018 10 16 0.00 0.00
1:53 am 01:53 Clear 64 17.8 57 13.9 78 78 S 5 7 30.05 1018 10 16 0.00 0.00
2:53 am 02:53 Clear 63 17.2 56 13.3 78 78 SW 5 7 30.04 1017 10 16 0.00 0.00
3:53 am 03:53 Clear 61 16.1 56 13.3 84 84 SW 5 7 30.04 1017 10 16 0.00 0.00
4:53 am 04:53 Mostly Cloudy 61 16.1 56 13.3 84 84 WSW 5 7 30.04 1017 10 16 0.00 0.00
5:53 am 05:53 Clear 61 16.1 56 13.3 84 84 SW 6 9 30.04 1017 10 16 0.00 0.00
6:53 am 06:53 Sunny 60 15.6 55 12.8 84 84 SW 5 7 30.04 1017 10 16 0.00 0.00
7:53 am 07:53 Sunny 63 17.2 57 13.9 81 81 SW 5 7 30.04 1017 10 16 0.00 0.00
8:53 am 08:53 Sunny 68 20 59 15 73 73 SW 6 9 30.04 1017 10 16 0.00 0.00
9:53 am 09:53 Sunny 73 22.8 61 16.1 66 66 SW 5 7 30.04 1017 10 16 0.00 0.00
10:53 am 10:53 Sunny 77 25 61 16.1 58 58 SW 8 13 30.03 1017 10 16 0.00 0.00
11:53 am 11:53 Sunny 79 26.1 62 16.7 56 56 W 9 15 30.02 1017 10 16 0.00 0.00
12:53 pm 12:53 Sunny 81 27.2 64 17.8 57 57 WSW 10 17 30.01 1016 10 16 0.00 0.00
1:53 pm 13:53 Sunny 83 28.3 64 17.8 53 53 WSW 9 15 30.00 1016 10 16 0.00 0.00
2:53 pm 14:53 Sunny 85 29.4 65 18.3 51 51 W 8 13 29.99 1016 10 16 0.00 0.00
3:53 pm 15:53 Sunny 86 30 64 17.8 48 48 W 8 13 29.98 1015 10 16 0.00 0.00
4:53 pm 16:53 Sunny 86 30 62 16.7 45 45 WSW 7 11 29.97 1015 10 16 0.00 0.00
5:53 pm 17:53 Sunny 86 30 64 17.8 48 48 SW 5 7 29.96 1015 10 16 0.00 0.00
6:53 pm 18:53 Sunny 85 29.4 64 17.8 50 50 WSW 5 7 29.96 1015 10 16 0.00 0.00
7:53 pm 19:53 Sunny 82 27.8 64 17.8 55 55 SW 3 6 29.96 1015 10 16 0.00 0.00
8:53 pm 20:53 Clear 81 27.2 63 17.2 54 54 Calm 29.96 1015 10 16 0.00 0.00
9:53 pm 21:53 Clear 76 24.4 66 18.9 72 72 S 3 6 29.97 1015 10 16 0.00 0.00
10:53 pm 22:53 Clear 70 21.1 66 18.9 87 87 NNE 10 17 29.99 1016 10 16 0.00 0.00
11:53 pm 23:53 Clear 70 21.1 67 19.4 90 90 E 7 11 29.99 1016 10 16 0.00 0.00

Powered by AerisWeather